Date,TemperatureHighF,TemperatureAvgF,TemperatureLowF,DewpointHighF,DewpointAvgF,DewpointLowF,HumidityHigh,HumidityAvg,HumidityLow,PressureMaxIn,PressureMinIn,WindSpeedMaxMPH,WindSpeedAvgMPH,GustSpeedMaxMPH,PrecipitationSumIn
2013-1-1,31.1,17.5,0.7,23.4,9.3,-4.7,78,70,55,28.71,28.47,12,2,12,0.00
2013-1-2,23.7,7.1,-5.1,14.1,-0.2,-12.2,78,72,57,28.95,28.63,13,1,13,0.00
2013-1-3,13.3,1.1,-15.9,4.7,-6.3,-21.6,77,71,58,28.96,28.68,0,0,0,0.00
2013-1-4,32.7,23.9,10.6,23.6,16.5,4.7,77,73,68,28.68,28.53,12,1,12,0.00
2013-1-5,36.3,26.6,16.0,23.1,17.3,9.7,76,68,49,28.97,28.58,16,2,16,0.02
2013-1-6,37.2,26.5,17.8,28.9,19.2,11.1,76,74,71,28.92,28.65,6,0,6,0.02
2013-1-7,36.0,24.3,11.1,24.7,15.5,5.1,77,70,46,29.09,28.72,12,1,12,0.00
2013-1-8,43.7,21.2,6.6,28.0,13.7,1.2,78,73,53,29.12,28.97,3,0,3,0.00
2013-1-9,40.5,23.9,9.1,31.1,16.5,3.4,77,73,63,29.11,28.71,15,1,15,0.00
2013-1-10,44.1,32.7,21.6,27.5,23.0,14.3,75,68,50,29.31,28.85,16,2,16,0.02
2013-1-11,33.4,25.6,18.1,24.7,17.8,11.2,75,72,68,29.31,28.87,4,0,4,0.02
2013-1-12,41.5,33.2,30.2,31.8,23.3,20.7,69,67,65,28.92,28.85,2,0,2,0.02
2013-1-13,37.4,32.2,31.3,26.1,22.1,21.6,67,66,64,28.90,28.81,6,0,6,0.00
2013-1-14,42.6,32.6,30.0,33.5,23.2,21.4,71,68,57,29.07,28.64,7,0,7,0.75
2013-1-15,38.7,30.0,26.4,22.4,19.9,17.2,73,66,48,29.09,28.98,5,0,5,0.00
2013-1-16,26.8,25.2,21.0,19.4,17.6,13.4,75,73,71,28.98,28.57,4,0,4,0.75
2013-1-17,32.7,23.3,12.0,25.0,11.2,-3.7,74,60,45,28.90,28.57,20,1,20,0.00
2013-1-18,23.7,11.1,-1.1,6.6,-2.7,-11.7,71,54,37,29.08,28.85,10,1,10,0.00
2013-1-19,37.9,25.1,14.4,25.7,17.4,6.9,76,72,59,28.97,28.52,5,0,5,0.00
2013-1-20,41.0,32.3,27.7,30.0,23.9,20.4,74,71,58,28.52,28.22,21,1,21,0.08
2013-1-21,19.6,14.0,3.9,9.6,7.2,-3.4,77,74,55,28.79,28.54,3,0,3,0.75
2013-1-22,20.8,7.3,-2.4,7.8,-0.5,-8.2,79,71,50,28.81,28.53,10,0,10,0.00
2013-1-23,10.6,-3.0,-13.0,-8.2,-14.8,-19.8,72,57,39,28.89,28.78,11,1,11,0.00
2013-1-24,13.8,-0.4,-12.6,-5.7,-12.4,-19.7,73,58,39,29.07,28.86,22,1,22,0.00
2013-1-25,19.9,5.7,-5.3,0.9,-6.8,-13.3,74,57,36,29.09,28.81,12,1,12,0.00
2013-1-26,20.1,7.4,-4.2,3.0,-2.6,-9.9,77,65,41,29.04,28.80,12,1,12,0.00
2013-1-27,28.8,12.6,3.7,4.8,0.0,-4.5,76,59,34,29.21,29.03,12,1,12,0.00
2013-1-28,19.4,15.7,10.0,12.5,8.0,0.8,76,72,62,29.19,28.72,0,0,0,0.00
2013-1-29,30.6,24.2,19.4,22.9,16.8,12.2,74,73,71,28.90,28.74,0,0,0,0.00
2013-1-30,43.2,36.7,30.6,30.8,25.8,21.0,68,65,62,28.76,28.10,6,0,6,0.23
2013-1-31,47.1,32.4,18.0,34.6,22.0,11.6,76,66,52,28.34,27.73,17,2,17,0.28
2013-2-1,24.6,16.5,10.6,11.9,7.5,1.2,76,68,53,28.86,28.33,9,1,12,0.00
2013-2-2,18.7,11.7,2.1,9.4,3.9,-3.6,78,71,60,28.91,28.74,12,0,12,0.00
2013-2-3,28.4,11.3,-2.9,13.2,3.0,-8.1,79,70,48,28.77,28.51,4,0,4,0.02
2013-2-4,25.9,13.6,5.5,10.7,2.8,-1.4,78,63,40,28.67,28.50,17,2,17,0.00
2013-2-5,29.1,12.6,-2.4,8.3,2.2,-7.9,77,64,40,28.75,28.64,6,0,6,0.00
2013-2-6,33.6,18.6,6.6,19.2,8.2,-1.8,76,64,43,29.09,28.63,14,1,14,0.00
2013-2-7,23.0,11.8,3.7,5.1,0.4,-3.7,73,61,44,29.26,29.08,6,0,6,0.00
2013-2-8,22.8,17.2,12.0,15.9,10.1,1.9,76,73,63,29.12,28.64,0,0,0,0.00
2013-2-9,27.3,15.5,4.5,11.8,5.9,-2.4,77,67,44,29.09,28.64,13,0,13,0.02
2013-2-10,34.9,13.5,-5.4,11.2,2.3,-11.1,77,63,36,29.20,29.01,4,0,4,0.82
2013-2-11,32.2,24.1,9.1,24.2,16.3,2.8,75,72,67,29.01,28.41,7,0,7,0.00
2013-2-12,37.0,31.9,28.6,28.2,23.8,20.4,73,72,69,28.65,28.40,18,1,18,0.02
2013-2-13,35.8,29.4,21.4,24.5,20.4,14.1,74,69,56,28.63,28.51,7,0,7,0.00
2013-2-14,43.5,28.8,16.2,24.5,18.6,9.6,75,66,45,28.70,28.51,6,0,6,0.76
2013-2-15,43.0,32.1,24.6,31.2,21.3,16.2,73,64,50,28.74,28.61,12,1,12,0.02
2013-2-16,34.9,25.0,16.3,19.3,13.8,5.8,75,63,41,28.76,28.64,10,0,10,0.00
2013-2-17,16.3,13.0,9.7,5.8,2.0,-0.8,64,61,58,28.64,28.47,20,1,20,0.00
2013-2-18,29.5,17.1,1.6,4.7,0.3,-6.5,68,48,33,28.90,28.64,22,2,22,0.76
2013-2-19,35.2,22.2,6.1,24.8,12.0,-1.1,73,65,46,28.88,28.39,10,0,10,0.00
2013-2-20,32.2,23.5,17.8,18.5,13.6,8.6,74,66,51,28.58,28.40,19,3,19,0.00
2013-2-21,25.7,15.5,6.4,12.0,5.9,-1.8,75,66,50,29.12,28.58,22,3,22,0.00
2013-2-22,36.0,24.7,10.6,22.3,15.3,4.4,76,68,53,29.17,28.98,6,0,6,0.00
2013-2-23,31.3,29.8,29.1,22.4,21.3,20.2,74,70,67,28.98,28.65,9,1,9,0.00
2013-2-24,35.4,30.3,27.0,26.1,21.4,19.1,73,69,66,28.73,28.55,7,0,7,0.14
2013-2-25,39.9,30.7,22.8,27.9,21.8,15.2,73,69,59,28.99,28.72,6,0,6,0.02
2013-2-26,46.6,30.9,18.9,29.9,21.8,11.2,72,69,48,29.07,28.83,9,0,9,0.00
2013-2-27,33.3,30.8,27.7,24.7,21.5,18.9,73,68,66,28.83,28.40,4,0,4,0.12
2013-2-28,42.1,32.5,29.1,33.1,22.8,19.5,70,67,65,28.41,28.34,3,0,3,0.49
2013-3-1,36.9,30.6,26.8,28.0,22.0,18.0,73,70,66,28.56,28.39,8,0,8,0.02
2013-3-2,34.5,25.5,18.3,24.1,17.6,11.3,75,72,65,28.55,28.50,7,1,7,0.00
2013-3-3,32.2,23.4,17.4,22.5,15.7,10.5,75,72,66,28.53,28.44,9,1,9,0.04
2013-3-4,35.2,24.4,19.9,21.5,16.1,12.9,74,70,55,28.66,28.49,19,2,19,0.00
2013-3-5,45.3,28.6,20.3,28.4,19.3,12.5,74,68,51,28.86,28.65,8,0,8,0.00
2013-3-6,39.7,30.3,19.2,29.4,21.6,11.6,72,70,66,28.93,28.83,6,0,6,0.00
2013-3-7,36.3,30.4,25.3,23.3,20.9,17.1,72,68,57,28.94,28.88,8,0,8,0.00
2013-3-8,50.2,31.7,23.9,34.9,21.9,15.8,72,68,46,29.07,28.89,11,0,11,0.21
2013-3-9,57.9,35.0,19.2,28.4,20.7,12.2,74,59,30,29.10,29.02,5,0,5,0.00
2013-3-10,52.0,35.1,18.7,28.4,21.1,11.1,73,59,36,29.10,28.93,8,0,8,0.00
2013-3-11,45.3,38.4,32.2,33.8,29.2,23.5,72,69,62,28.97,28.75,14,1,14,0.00
2013-3-12,46.8,39.5,32.5,33.3,28.2,22.2,70,64,59,28.78,28.49,13,2,13,1.36
2013-3-13,42.4,31.9,27.7,29.8,22.4,19.8,73,68,49,28.63,28.53,12,0,12,0.75
2013-3-14,28.0,22.5,17.4,20.5,12.1,5.2,73,64,49,28.66,28.54,17,2,17,0.00
2013-3-15,31.8,23.3,12.2,23.8,14.1,4.5,74,68,47,28.67,28.35,12,1,12,0.77
2013-3-16,33.1,22.8,13.1,16.5,13.1,6.9,76,67,50,28.67,28.52,9,1,9,0.00
2013-3-17,33.1,17.2,10.8,11.2,5.8,0.3,76,62,35,29.08,28.66,15,1,15,0.75
2013-3-18,33.4,20.1,2.5,17.6,4.9,-3.7,75,54,34,29.18,28.84,7,0,7,0.00
2013-3-19,33.6,27.1,22.3,25.5,19.1,15.2,74,71,69,28.84,28.48,3,0,3,0.00
2013-3-20,35.2,24.6,14.7,25.2,16.2,8.2,75,71,56,28.53,28.44,6,0,6,0.04
2013-3-21,36.0,22.3,11.1,20.0,12.6,4.9,76,67,46,28.53,28.40,9,0,9,0.02
2013-3-22,34.7,25.0,10.6,22.7,16.5,4.5,76,70,55,28.55,28.42,10,1,10,0.75
2013-3-23,39.0,29.5,22.8,24.4,19.7,15.8,74,67,51,28.63,28.49,15,2,15,0.00
2013-3-24,40.8,32.3,25.0,25.3,22.0,17.8,74,66,53,28.66,28.55,12,1,12,0.75
2013-3-25,40.8,31.4,20.8,26.4,21.3,13.7,74,66,54,28.59,28.35,6,0,6,0.00
2013-3-26,44.4,34.8,26.2,25.3,22.3,18.4,72,61,43,28.63,28.41,8,0,8,0.00
2013-3-27,51.6,36.4,25.9,29.6,25.0,18.4,74,64,42,28.73,28.59,11,1,11,0.00
2013-3-28,47.3,37.0,31.1,34.2,27.8,23.4,73,69,57,28.87,28.71,12,0,12,0.00
2013-3-29,46.6,36.3,27.3,32.8,26.3,18.7,73,67,55,28.88,28.82,12,1,12,0.00
2013-3-30,52.2,36.8,24.3,29.9,21.2,15.9,73,56,30,28.89,28.82,11,1,11,0.00
2013-3-31,52.0,31.2,20.8,33.9,21.9,13.5,74,69,38,28.88,28.51,10,1,10,0.80
2013-4-1,41.7,33.7,25.0,32.2,21.7,10.9,72,62,43,28.60,28.34,16,2,16,0.00
2013-4-2,31.8,25.8,20.8,16.9,12.5,7.7,71,57,47,28.71,28.58,17,2,17,0.00
2013-4-3,39.4,28.1,20.8,15.1,12.6,10.1,67,53,35,28.99,28.70,21,3,21,0.00
2013-4-4,52.0,35.1,21.7,22.9,18.0,13.9,72,53,30,29.04,28.71,13,1,13,0.00
2013-4-5,50.7,35.9,27.7,28.9,22.6,14.1,73,60,39,28.76,28.57,15,2,15,0.00
2013-4-6,44.2,30.7,21.0,16.5,11.7,7.6,64,47,26,29.05,28.76,18,2,18,0.00
2013-4-7,54.7,36.9,25.9,32.1,24.0,15.3,71,60,33,29.01,28.63,13,1,13,0.76
2013-4-8,59.5,45.2,36.7,35.3,31.3,27.7,73,60,36,28.91,28.71,10,1,10,0.00
2013-4-9,52.9,40.9,32.0,40.3,31.0,24.1,72,68,58,28.82,28.60,10,0,10,0.76
2013-4-10,50.2,41.3,36.3,40.4,30.6,26.0,70,66,63,28.80,28.68,6,0,6,0.20
2013-4-11,38.1,33.1,29.5,27.3,24.1,21.0,74,69,58,28.94,28.70,5,0,5,0.02
2013-4-12,30.9,29.5,27.1,22.7,21.0,18.9,74,70,68,28.92,28.58,4,0,4,0.02
2013-4-13,40.8,33.5,29.3,32.1,24.2,20.4,71,69,67,28.70,28.56,6,0,6,0.00
2013-4-14,43.7,34.5,26.1,33.9,24.9,18.2,74,68,55,29.01,28.68,14,1,14,0.00
2013-4-15,60.1,40.2,23.2,36.5,27.0,15.2,73,61,40,29.12,28.99,8,1,8,0.00
2013-4-16,53.2,45.2,36.3,43.6,34.6,27.8,72,66,60,29.05,28.76,9,0,9,0.12
2013-4-17,60.3,43.9,30.0,37.4,30.0,20.7,73,59,38,29.13,28.90,13,1,13,0.00
2013-4-18,61.3,43.1,27.7,42.0,31.1,19.5,72,64,43,29.13,28.78,20,2,20,0.00
2013-4-19,69.6,54.8,38.5,56.9,43.0,28.9,70,65,58,28.78,28.32,18,3,18,0.04
2013-4-20,46.6,38.6,30.7,31.6,26.3,18.2,72,61,49,29.05,28.49,15,2,15,0.00
2013-4-21,49.8,35.6,25.2,22.6,18.5,15.1,71,51,30,29.43,29.05,10,1,10,0.00
2013-4-22,56.5,39.0,21.9,27.0,21.2,14.9,74,52,29,29.46,29.26,14,2,14,0.00
2013-4-23,55.2,39.9,24.4,36.3,27.6,17.0,74,63,43,29.28,28.92,12,1,12,0.00
2013-4-24,72.7,48.9,26.2,47.5,34.7,18.1,71,60,37,28.92,28.48,15,1,15,0.00
2013-4-25,54.9,43.3,32.2,38.4,29.7,23.8,72,60,36,29.06,28.52,14,2,14,0.00
2013-4-26,53.2,39.9,28.6,36.6,28.0,20.7,73,64,42,29.22,29.05,9,0,9,0.00
2013-4-27,63.0,42.8,24.6,36.1,27.4,16.8,73,58,33,29.23,29.07,5,0,5,0.00
2013-4-28,73.0,50.8,27.7,43.1,34.0,19.5,72,56,33,29.10,28.91,9,0,9,0.00
2013-4-29,60.3,51.7,46.8,43.6,39.8,34.8,70,64,50,29.01,28.94,17,2,17,0.00
2013-4-30,70.7,55.3,45.1,49.9,42.5,35.0,71,63,45,29.08,28.99,15,1,15,0.00
2013-5-1,78.1,57.1,37.2,47.9,38.5,27.3,70,53,27,29.23,29.07,8,0,8,0.00
2013-5-2,83.1,62.2,37.2,46.1,40.0,28.4,71,48,27,29.24,29.08,8,0,8,0.00
2013-5-3,72.5,58.5,45.0,40.3,36.1,30.3,70,45,26,29.26,29.11,8,1,8,0.00
2013-5-4,77.2,56.3,35.2,47.7,38.7,26.6,72,55,29,29.15,28.98,14,0,14,0.00
2013-5-5,78.6,57.5,35.8,45.9,37.7,27.0,71,52,25,29.07,28.92,13,1,13,0.00
2013-5-6,79.2,57.9,36.1,44.1,35.1,27.3,72,48,18,29.02,28.87,10,1,10,0.00
2013-5-7,83.1,60.7,37.9,51.0,40.5,29.4,72,51,26,28.97,28.84,11,1,11,0.00
2013-5-8,75.6,58.3,43.2,56.5,45.7,33.1,70,63,50,28.97,28.82,12,0,12,0.00
2013-5-9,67.8,58.2,50.2,53.7,45.9,38.0,69,64,56,28.82,28.68,7,0,7,0.00
2013-5-10,75.0,59.7,50.7,58.2,47.1,38.5,68,63,53,28.79,28.63,10,0,10,0.00
2013-5-11,68.9,58.1,46.2,56.9,46.3,36.5,70,65,60,28.65,28.45,10,1,10,0.00
2013-5-12,58.5,46.6,38.8,42.3,33.9,27.8,71,62,37,28.61,28.47,13,1,13,0.00
2013-5-13,48.4,40.1,31.8,32.1,28.1,24.2,73,63,49,28.85,28.60,12,2,12,0.00
2013-5-14,54.3,38.6,25.9,32.9,26.3,18.4,74,63,36,28.89,28.78,6,0,6,0.75
2013-5-15,54.0,37.7,25.5,42.2,28.7,18.3,74,70,48,28.83,28.43,7,0,7,0.75
2013-5-16,74.7,56.0,36.0,47.8,37.0,27.1,70,52,30,28.70,28.46,23,2,23,0.75
2013-5-17,68.7,53.4,41.5,42.4,37.7,33.2,72,57,34,29.03,28.70,15,1,15,0.00
2013-5-18,74.5,54.0,33.1,45.8,36.9,25.0,73,56,31,29.10,28.99,13,1,13,0.00
2013-5-19,60.3,49.7,38.3,49.3,39.1,29.4,70,67,63,29.09,28.92,11,1,11,0.00
2013-5-20,76.6,61.4,52.2,63.1,49.0,40.3,66,64,61,28.93,28.77,9,0,9,0.00
2013-5-21,82.6,63.9,55.2,66.4,50.7,42.4,68,62,53,28.79,28.63,6,0,6,0.66
2013-5-22,77.5,65.6,58.1,64.4,52.2,45.1,65,62,58,28.67,28.58,14,0,14,0.06
2013-5-23,77.0,65.4,57.6,63.2,52.2,44.6,67,62,58,28.63,28.54,12,1,12,0.40
2013-5-24,58.1,47.6,39.4,45.4,36.8,30.0,69,66,62,28.84,28.49,8,0,8,0.80
2013-5-25,40.8,39.4,37.4,31.5,30.2,28.6,70,69,69,28.81,28.72,11,1,11,0.35
2013-5-26,54.1,43.5,36.1,43.6,34.2,27.3,71,69,67,28.89,28.67,15,1,15,0.04
2013-5-27,69.3,50.4,32.5,42.6,34.8,24.2,72,58,33,28.99,28.89,10,1,10,0.00
2013-5-28,71.2,53.8,33.3,47.2,38.7,24.8,72,59,37,29.02,28.90,12,0,12,0.00
2013-5-29,65.1,58.6,52.9,51.7,45.9,41.3,69,63,60,28.91,28.76,5,0,5,0.08
2013-5-30,87.4,69.4,56.1,66.0,54.9,44.9,67,61,44,28.91,28.81,9,1,9,0.00
2013-5-31,92.5,72.7,55.8,68.9,56.0,44.5,68,57,34,28.93,28.76,9,1,9,0.00
2013-6-1,89.8,71.2,58.8,68.5,57.9,47.4,69,63,43,28.79,28.64,14,0,14,0.26
2013-6-2,82.2,66.7,56.8,68.7,55.5,47.2,70,67,62,28.67,28.51,11,0,11,0.13
2013-6-3,69.6,59.4,49.3,53.6,46.3,37.5,72,63,46,28.72,28.62,9,1,9,0.00
2013-6-4,69.4,55.4,43.5,48.3,42.1,35.8,74,62,45,28.94,28.71,13,1,13,0.00
2013-6-5,47.5,44.2,39.4,39.4,36.3,31.7,74,74,73,28.97,28.93,0,0,0,0.00
2013-6-6,66.9,53.4,46.9,53.2,44.1,38.8,73,71,55,28.96,28.84,6,0,6,0.16
2013-6-7,53.8,51.2,49.6,44.6,42.4,41.0,73,72,71,28.85,28.67,3,0,3,0.86
2013-6-8,65.8,56.8,49.6,56.0,47.8,41.3,73,72,70,28.84,28.58,6,0,6,0.06
2013-6-9,76.8,62.2,51.4,57.8,50.1,43.1,73,65,48,29.00,28.84,11,0,11,0.02
2013-6-10,69.6,56.8,45.7,57.7,47.3,37.5,74,71,60,29.02,28.74,7,0,7,0.47
2013-6-11,59.4,56.3,53.8,49.5,47.1,44.9,72,71,70,28.74,28.40,3,0,3,1.04
2013-6-12,68.4,58.1,50.9,56.1,48.3,42.2,73,70,61,28.68,28.45,11,0,11,0.00
2013-6-13,57.7,52.2,45.5,48.7,43.5,37.3,74,72,71,28.67,28.52,6,0,6,0.08
2013-6-14,74.5,55.0,48.0,59.6,45.6,39.7,73,71,48,28.71,28.52,7,0,7,0.06
2013-6-15,76.3,58.9,42.1,49.7,43.8,34.2,74,60,36,28.79,28.70,8,0,8,0.00
2013-6-16,69.6,57.4,47.1,56.9,47.9,39.2,74,71,62,28.77,28.52,6,0,6,0.06
2013-6-17,74.5,60.8,49.6,61.4,51.1,41.3,73,70,62,28.76,28.60,7,0,7,0.12
2013-6-18,64.2,54.2,46.0,53.9,45.5,38.2,74,72,68,28.81,28.73,6,0,6,0.13
2013-6-19,72.0,54.5,39.9,47.0,41.0,32.6,75,62,39,29.00,28.80,9,0,9,0.00
2013-6-20,78.6,57.9,38.1,54.4,43.3,30.9,76,61,38,29.07,28.97,9,0,9,0.00
2013-6-21,82.9,62.9,42.1,58.6,48.4,34.4,75,61,38,29.07,29.01,8,0,8,0.00
2013-6-22,79.2,64.9,51.6,66.5,54.6,42.9,72,69,61,29.04,28.89,3,0,3,0.02
2013-6-23,79.7,66.3,61.5,67.7,55.7,51.6,70,69,67,28.94,28.85,3,0,3,0.30
2013-6-24,82.2,66.7,61.5,70.4,55.7,51.3,69,68,65,28.84,28.74,0,0,0,0.35
2013-6-25,85.8,68.2,60.6,70.6,57.3,51.3,71,68,56,28.79,28.60,10,0,10,0.12
2013-6-26,75.4,67.3,62.2,64.5,56.8,52.4,71,69,66,28.65,28.59,4,0,4,0.14
2013-6-27,85.1,70.7,59.0,68.7,58.8,49.6,71,66,51,28.65,28.52,8,0,8,1.60
2013-6-28,77.5,65.5,60.1,64.8,54.9,50.1,70,68,65,28.52,28.20,8,0,8,1.18
2013-6-29,76.3,65.8,57.7,64.1,54.9,47.8,70,68,64,28.52,28.33,8,0,8,0.02
2013-6-30,83.5,68.1,56.1,67.3,56.4,46.3,70,66,55,28.75,28.51,8,0,8,0.18
2013-7-1,66.9,64.2,61.3,55.4,52.8,50.3,68,67,65,28.88,28.75,5,0,6,0.43
2013-7-2,78.6,66.6,60.4,65.8,54.8,50.1,69,66,61,28.96,28.87,6,0,6,0.16
2013-7-3,87.6,73.0,65.1,71.9,60.1,53.6,67,64,57,29.00,28.92,8,0,8,0.00
2013-7-4,87.6,73.5,64.6,72.1,59.8,52.3,65,62,56,29.03,28.92,11,0,11,0.23
2013-7-5,90.1,74.1,63.3,72.5,60.5,51.7,66,63,53,29.00,28.88,7,0,7,0.00
2013-7-6,84.7,74.9,61.9,69.1,61.3,48.7,68,63,51,28.93,28.85,7,0,7,0.00
2013-7-7,80.4,69.0,59.7,69.3,56.1,47.1,69,63,59,28.90,28.75,2,0,2,0.55
2013-7-8,83.1,70.9,64.9,72.1,58.8,51.3,73,66,55,28.89,28.77,7,0,7,0.31
2013-7-9,83.3,70.4,62.2,71.8,59.2,50.7,75,68,63,28.92,28.82,6,0,6,0.20
2013-7-10,78.1,70.3,65.8,71.4,59.7,54.5,80,69,63,28.83,28.59,8,0,8,0.69
2013-7-11,81.9,69.8,58.8,65.2,59.5,50.9,78,70,52,28.86,28.57,0,0,0,0.00
2013-7-12,79.7,65.9,53.8,62.6,55.2,46.0,78,69,51,29.03,28.85,2,0,2,0.00
2013-7-13,75.6,67.6,55.6,66.4,59.3,47.7,78,75,69,29.13,29.03,0,0,0,0.00
2013-7-14,76.1,64.1,61.5,67.8,55.1,52.8,76,73,70,29.15,29.11,0,0,0,0.00
2013-7-15,91.9,79.0,64.0,70.2,65.2,55.2,78,64,44,29.09,28.98,7,0,7,0.00
2013-7-16,89.4,75.6,65.8,72.5,65.2,58.0,78,71,52,29.07,29.00,7,0,7,0.00
2013-7-17,93.0,77.3,63.0,72.8,65.4,54.9,77,68,49,29.05,28.84,7,0,7,0.00
2013-7-18,92.8,77.8,68.2,73.7,67.0,59.4,78,70,46,28.90,28.77,8,0,8,0.00
2013-7-19,93.0,78.3,66.6,74.1,66.4,58.4,79,68,47,28.79,28.54,14,1,14,0.29
2013-7-20,80.2,69.9,61.5,69.5,61.1,54.2,79,74,62,28.68,28.52,9,0,9,0.04
2013-7-21,78.6,65.3,55.9,63.7,56.3,49.1,79,73,58,28.85,28.68,7,0,7,0.00
2013-7-22,83.1,65.7,52.3,66.8,56.9,46.0,79,74,56,28.86,28.67,6,0,6,0.45
2013-7-23,81.0,69.2,62.4,69.4,60.7,54.3,77,75,64,28.68,28.41,5,0,5,0.86
2013-7-24,70.0,61.4,48.0,59.8,53.2,42.1,81,74,65,28.86,28.44,10,1,10,0.04
2013-7-25,73.9,56.5,41.9,53.3,45.5,36.4,81,69,47,28.94,28.86,6,0,6,0.00
2013-7-26,77.9,60.3,46.6,60.2,51.2,40.8,80,73,53,28.93,28.82,0,0,0,0.00
2013-7-27,81.1,64.2,47.5,64.8,54.3,41.3,79,71,52,28.88,28.77,10,1,10,0.00
2013-7-28,73.2,65.4,62.2,65.6,57.9,54.5,78,77,75,28.81,28.74,10,1,10,0.16
2013-7-29,79.3,65.8,55.4,60.0,54.8,48.3,79,69,44,28.92,28.78,9,0,9,0.00
2013-7-30,78.1,63.0,51.1,59.1,53.1,44.5,80,71,48,28.96,28.89,11,0,11,0.00
2013-7-31,79.0,64.1,51.1,63.1,54.8,44.8,79,73,55,28.97,28.84,9,1,9,0.00
2013-8-1,70.3,61.4,53.2,63.1,54.0,46.6,78,77,75,28.85,28.64,13,1,13,0.33
2013-8-2,78.1,64.7,55.6,61.5,54.7,48.6,79,71,51,28.68,28.63,12,0,12,0.00
2013-8-3,73.8,61.3,53.4,61.2,52.9,46.8,79,74,57,28.71,28.63,10,0,10,0.43
2013-8-4,73.8,60.0,52.0,58.9,51.1,45.7,80,73,52,28.79,28.67,22,1,22,0.00
2013-8-5,73.6,58.2,46.6,50.4,46.4,40.8,80,67,42,28.88,28.78,8,0,8,0.00
2013-8-6,76.5,58.6,44.6,57.0,48.0,38.8,80,69,48,28.94,28.88,7,0,8,0.00
2013-8-7,73.9,63.4,52.3,63.0,55.5,45.7,79,76,62,28.95,28.83,10,1,11,0.00
2013-8-8,84.4,71.9,64.4,69.6,63.0,56.7,79,74,57,28.84,28.77,10,1,10,0.00
2013-8-9,75.4,69.7,63.7,67.4,61.2,55.6,77,75,72,28.79,28.61,6,0,6,0.04
2013-8-10,76.6,64.4,54.3,56.5,52.6,47.9,79,67,45,28.88,28.67,9,0,9,0.00
2013-8-11,79.3,61.3,47.5,56.9,50.1,41.3,79,68,42,28.92,28.81,0,0,0,0.00
2013-8-12,80.8,63.4,49.3,60.8,53.1,43.0,80,71,44,28.86,28.73,0,0,0,0.00
2013-8-13,70.3,60.5,54.3,63.1,53.2,47.6,78,77,75,28.73,28.53,7,0,7,0.38
2013-8-14,69.6,55.9,46.6,56.7,48.3,40.8,80,76,62,28.82,28.56,8,1,8,0.00
2013-8-15,72.3,56.7,41.4,55.6,46.9,35.9,81,71,51,28.93,28.81,9,0,9,0.00
2013-8-16,72.7,53.9,44.2,58.4,46.3,38.5,80,76,53,29.03,28.92,6,0,6,0.00
2013-8-17,81.7,63.1,49.8,60.7,52.7,43.5,79,70,41,29.11,29.02,0,0,0,0.00
2013-8-18,76.8,62.8,52.0,62.2,53.3,45.5,79,72,55,29.10,28.94,0,0,0,0.00
2013-8-19,82.2,67.8,52.3,62.6,57.2,45.7,79,70,49,28.90,28.80,0,0,0,0.00
2013-8-20,85.3,66.8,51.4,64.8,56.2,45.2,80,70,44,28.95,28.85,4,0,4,0.00
2013-8-21,86.7,68.4,54.7,66.7,57.7,47.9,79,70,47,28.99,28.85,0,0,0,0.00
2013-8-22,86.5,66.1,55.6,67.0,56.5,48.6,78,72,48,28.87,28.68,7,0,7,0.37
2013-8-23,74.7,61.4,49.6,60.6,53.0,43.4,79,74,58,29.01,28.74,6,0,6,0.00
2013-8-24,79.2,58.7,43.3,57.2,48.0,37.6,80,70,40,29.15,29.01,0,0,0,0.00
2013-8-25,81.5,62.0,46.2,60.0,50.7,40.5,80,69,39,29.19,28.95,0,0,0,0.00
2013-8-26,77.7,66.1,59.2,68.6,58.3,51.8,77,76,73,28.96,28.72,4,0,4,0.31
2013-8-27,81.7,67.6,60.1,69.7,59.5,52.7,77,75,66,28.77,28.70,4,0,4,0.04
2013-8-28,87.1,69.6,59.0,69.7,60.2,51.8,78,73,51,28.79,28.68,5,0,5,0.00
2013-8-29,81.7,67.9,60.1,67.5,59.3,52.5,78,74,60,28.89,28.78,0,0,0,0.00
2013-8-30,86.7,70.5,61.3,69.2,60.8,53.7,78,72,53,28.84,28.63,0,0,0,0.00
2013-8-31,78.6,68.4,64.6,70.4,60.0,56.5,76,75,72,28.66,28.58,0,0,0,0.12
2013-9-1,80.6,68.5,61.7,70.4,60.5,54.4,77,76,71,28.72,28.64,0,0,0,0.02
2013-9-2,78.6,68.4,60.1,68.5,60.2,52.3,77,75,70,28.68,28.51,0,0,0,0.27
2013-9-3,71.8,62.0,55.4,62.5,54.3,48.4,79,76,68,28.67,28.56,0,0,0,0.02
2013-9-4,77.5,64.0,52.2,59.0,53.4,45.5,79,69,51,28.74,28.67,0,0,0,0.00
2013-9-5,67.8,56.2,41.5,52.9,45.6,35.8,81,69,45,29.00,28.70,0,0,0,0.08
2013-9-6,71.4,51.0,34.3,48.4,39.5,29.0,81,67,37,29.07,28.90,0,0,0,0.00
2013-9-7,68.9,55.8,46.2,59.5,48.3,40.1,80,76,58,28.90,28.68,0,0,0,0.00
2013-9-8,66.9,56.5,41.5,51.6,45.7,36.1,81,68,46,28.93,28.62,7,0,7,0.04
2013-9-9,71.2,51.7,34.3,50.0,41.4,29.0,82,70,43,29.02,28.88,9,1,9,0.00
2013-9-10,73.2,60.0,48.2,65.4,52.6,41.9,79,76,74,28.89,28.80,1,0,1,0.02
2013-9-11,92.1,72.8,60.6,76.5,62.2,53.1,77,70,50,28.89,28.75,17,0,17,0.08
2013-9-12,82.0,68.1,62.6,70.0,59.4,54.5,77,74,64,28.79,28.49,8,0,8,0.09
2013-9-13,65.7,58.0,50.7,56.4,50.7,44.4,79,77,70,28.69,28.46,8,0,8,0.06
2013-9-14,65.5,52.2,40.5,49.5,44.0,34.8,81,74,55,28.91,28.68,12,1,12,0.00
2013-9-15,70.3,50.9,35.4,53.5,42.6,30.1,81,74,49,28.96,28.82,8,0,8,0.00
2013-9-16,61.9,51.0,40.6,51.8,43.5,34.9,80,76,59,29.11,28.84,6,0,6,0.06
2013-9-17,65.5,46.2,31.3,44.1,36.2,26.5,82,70,43,29.25,29.11,7,0,7,0.00
2013-9-18,74.1,51.5,34.3,53.3,41.9,29.0,81,72,46,29.13,28.93,0,0,0,0.02
2013-9-19,79.0,56.3,39.0,56.6,46.0,33.7,81,70,43,28.97,28.84,0,0,0,0.00
2013-9-20,81.1,59.5,43.5,61.1,49.3,37.6,80,70,47,28.90,28.74,9,1,9,0.00
2013-9-21,71.2,60.0,50.5,57.9,51.4,43.9,78,74,54,28.76,28.44,19,2,19,0.14
2013-9-22,59.2,52.2,41.9,50.5,45.0,36.4,81,77,68,28.72,28.42,13,0,13,0.12
2013-9-23,58.8,46.9,41.2,43.4,38.3,35.4,81,73,54,28.86,28.71,10,1,10,0.00
2013-9-24,66.4,49.7,37.2,44.4,39.3,31.9,81,69,42,28.85,28.70,10,1,10,0.00
2013-9-25,75.0,54.1,40.5,52.8,43.9,34.8,80,70,44,28.82,28.70,7,0,7,0.00
2013-9-26,68.4,51.1,39.0,49.7,42.0,33.4,81,72,51,28.98,28.81,7,0,7,0.00
2013-9-27,58.8,50.1,42.1,50.7,43.6,36.3,80,78,73,29.11,28.98,0,0,0,0.00
2013-9-28,74.1,52.1,37.0,55.3,42.5,31.7,81,72,45,29.17,29.06,7,0,7,0.00
2013-9-29,75.2,54.0,38.8,55.2,44.0,33.3,81,71,46,29.06,28.87,8,0,8,0.00
2013-9-30,75.9,55.3,39.4,54.3,44.8,33.8,80,70,43,28.91,28.78,0,0,0,0.00
2013-10-1,78.4,56.5,41.2,59.6,47.0,35.2,80,72,49,28.84,28.71,6,0,6,0.00
2013-10-2,79.9,60.0,46.2,61.9,49.7,39.8,79,70,48,28.82,28.69,10,1,10,0.00
2013-10-3,78.6,58.1,43.2,50.7,45.6,37.4,80,66,35,28.92,28.82,8,0,8,0.00
2013-10-4,64.2,53.1,43.0,53.5,45.9,37.2,80,77,65,28.91,28.86,0,0,0,0.00
2013-10-5,60.4,55.7,53.2,51.3,47.9,45.3,78,75,69,28.94,28.88,0,0,0,0.00
2013-10-6,54.9,53.1,51.4,47.2,46.1,44.8,79,77,76,28.94,28.82,8,0,8,0.47
2013-10-7,68.2,57.3,48.7,60.4,49.6,41.8,79,75,72,28.83,28.41,16,2,16,0.88
2013-10-8,64.8,49.6,37.2,44.4,39.1,31.6,80,69,41,29.17,28.71,15,1,15,0.00
2013-10-9,67.8,45.6,30.0,44.5,35.2,24.9,81,70,39,29.25,29.13,0,0,0,0.00
2013-10-10,71.2,48.2,33.6,47.7,37.8,28.1,80,70,33,29.14,28.99,0,0,0,0.00
2013-10-11,73.4,53.0,42.4,51.0,42.7,36.4,79,70,41,29.00,28.92,0,0,0,0.00
2013-10-12,75.4,55.1,36.3,54.4,44.4,30.7,80,69,46,29.14,28.99,4,0,4,0.00
2013-10-13,70.3,54.4,46.2,52.6,45.3,39.8,78,72,52,29.20,29.09,8,1,8,0.00
2013-10-14,56.3,52.3,49.1,48.8,45.2,42.1,78,77,75,29.12,29.04,0,0,0,0.08
2013-10-15,62.8,53.6,48.2,54.4,46.3,41.1,78,76,75,29.07,28.90,6,0,6,0.00
2013-10-16,62.8,54.7,49.1,51.8,47.0,42.5,78,75,66,28.90,28.65,10,0,10,0.00
2013-10-17,66.4,54.1,48.4,51.8,46.0,41.1,78,74,58,28.67,28.47,7,0,7,0.29
2013-10-18,56.7,49.4,39.7,48.6,41.6,33.8,80,75,61,28.72,28.44,9,1,9,0.39
2013-10-19,61.7,45.5,32.7,49.6,37.5,27.2,80,74,59,28.74,28.47,10,1,10,0.06
2013-10-20,55.2,43.0,34.3,40.3,35.2,28.8,80,74,52,28.81,28.45,8,0,8,0.02
2013-10-21,65.5,46.7,31.3,45.9,36.5,25.9,80,69,46,28.86,28.67,4,0,4,0.00
2013-10-22,55.6,45.6,35.2,43.6,36.5,29.0,79,71,49,28.68,28.52,10,1,10,0.02
2013-10-23,46.2,36.9,29.8,36.3,30.2,24.7,81,77,62,28.58,28.42,6,0,6,0.00
2013-10-24,42.6,34.9,26.1,34.0,28.5,21.0,82,77,67,28.68,28.48,25,1,25,0.02
2013-10-25,45.7,35.2,29.1,31.6,27.8,24.0,81,75,56,28.90,28.68,11,1,11,0.02
2013-10-26,46.6,36.8,28.2,32.7,28.9,23.1,81,74,49,28.90,28.59,15,1,15,0.02
2013-10-27,47.1,39.9,32.7,34.8,30.5,25.2,80,70,53,28.82,28.55,12,1,12,0.00
2013-10-28,48.9,37.4,24.1,37.7,28.9,18.5,80,72,54,29.14,28.80,14,1,14,0.00
2013-10-29,47.8,29.4,17.8,27.0,19.3,13.1,83,68,38,29.23,29.10,2,0,2,0.00
2013-10-30,46.0,33.7,26.2,36.1,26.8,18.1,81,76,68,29.10,28.96,8,0,8,0.00
2013-10-31,52.9,38.1,28.0,45.2,32.1,22.9,82,79,75,29.01,28.43,6,0,6,0.24
2013-11-1,68.5,57.1,49.1,55.0,45.8,40.8,76,67,45,28.46,28.12,21,2,23,0.76
2013-11-2,53.4,43.5,35.2,44.8,36.7,29.0,79,77,71,28.66,28.42,6,0,6,0.00
2013-11-3,40.8,30.9,24.4,30.6,21.3,16.0,80,68,50,29.24,28.66,10,1,10,0.00
2013-11-4,41.2,27.7,19.0,20.9,17.4,13.3,80,66,42,29.42,29.24,8,0,8,0.00
2013-11-5,52.0,34.0,19.9,32.4,25.0,15.0,81,71,47,29.40,29.21,9,0,9,0.00
2013-11-6,60.6,43.2,29.8,44.4,34.6,24.4,80,73,53,29.22,28.70,17,1,17,0.00
2013-11-7,48.6,41.8,29.1,41.8,35.1,23.6,80,77,73,28.70,28.55,10,1,10,0.18
2013-11-8,41.9,32.4,27.1,31.6,24.4,22.0,81,73,57,28.90,28.63,18,1,18,0.00
2013-11-9,39.6,33.0,25.0,28.4,24.4,18.8,80,71,60,28.96,28.69,10,0,10,0.00
2013-11-10,39.7,34.8,31.3,33.4,29.0,25.9,81,79,78,28.74,28.52,18,0,18,0.25
2013-11-11,40.5,36.0,32.2,31.3,28.6,26.3,81,75,65,28.89,28.63,13,1,13,0.02
2013-11-12,34.3,25.2,20.5,28.1,17.4,12.5,80,72,64,29.01,28.68,16,3,16,0.00
2013-11-13,33.6,24.7,17.2,20.5,14.5,9.1,79,66,44,29.08,28.83,13,1,13,0.00
2013-11-14,46.8,32.5,22.6,33.2,24.9,17.7,81,74,55,28.85,28.79,8,1,8,0.00
2013-11-15,55.6,33.2,25.5,30.9,23.8,20.4,81,70,34,28.95,28.84,8,1,8,0.00
2013-11-16,59.7,37.6,27.3,37.6,28.1,21.9,81,70,39,29.07,28.94,5,0,5,0.00
2013-11-17,50.5,37.2,28.0,43.6,31.3,22.9,81,79,76,29.02,28.81,8,0,8,0.00
2013-11-18,44.8,40.2,33.6,33.5,31.3,27.7,79,71,62,30.01,29.94,13,2,13,0.00
2013-11-19,33.4,29.0,22.8,27.9,20.0,14.2,80,69,62,30.65,30.00,16,2,16,0.02
2013-11-20,38.1,24.5,16.9,20.8,15.2,11.7,81,69,46,30.90,30.65,7,0,7,0.00
2013-11-21,42.1,26.5,12.0,24.3,17.5,7.5,82,70,45,30.89,30.62,6,0,6,0.00
2013-11-22,39.7,34.6,31.3,33.8,28.7,23.6,80,79,74,30.63,30.15,8,0,8,0.16
2013-11-23,36.7,27.9,15.6,31.1,21.2,11.1,83,76,58,30.28,30.10,19,2,19,0.00
2013-11-24,21.6,13.7,8.1,11.5,4.9,-1.2,83,68,55,30.52,30.16,23,2,23,0.02
2013-11-25,31.8,16.9,2.3,16.4,7.2,-4.5,77,66,49,30.64,30.43,8,0,8,0.04
2013-11-26,31.5,28.0,24.4,25.3,21.1,15.0,81,75,64,30.52,30.24,9,0,9,0.00
2013-11-27,34.3,31.6,27.0,28.8,26.2,21.4,81,80,80,30.24,29.70,17,1,17,0.43
2013-11-28,27.3,17.8,7.5,21.4,9.6,2.7,81,71,52,30.68,29.88,15,1,15,0.02
2013-11-29,31.1,13.7,3.0,13.2,5.8,-1.3,82,72,44,30.99,30.68,9,0,9,0.00
2013-11-30,25.9,14.6,0.1,14.8,6.6,-4.4,81,71,57,31.01,30.58,10,1,10,0.00
2013-12-1,34.7,27.7,22.8,26.1,21.2,13.4,81,76,66,30.58,30.31,3,0,3,0.02
2013-12-2,35.2,30.2,26.4,29.5,25.1,21.3,82,81,80,30.32,30.19,0,0,0,0.02
2013-12-3,47.3,32.5,27.7,36.3,26.4,22.6,81,78,61,30.29,30.18,7,0,7,0.02
2013-12-4,40.8,29.0,22.8,28.4,22.3,18.1,82,76,58,30.44,30.28,5,0,5,0.00
2013-12-5,41.7,34.5,24.6,35.1,28.8,19.9,82,80,77,30.43,30.17,5,0,5,0.00
2013-12-6,40.1,33.4,29.8,33.8,27.6,24.3,80,79,77,30.44,30.21,10,0,10,0.23
2013-12-7,33.6,27.6,21.7,24.8,19.0,14.3,80,70,53,30.72,30.40,8,1,10,0.00
2013-12-8,27.3,22.2,16.2,16.3,14.1,10.0,80,71,61,30.83,30.68,6,0,6,0.00
2013-12-9,32.4,26.4,21.6,26.9,20.8,15.2,81,79,72,30.69,30.14,0,0,0,0.00
2013-12-10,31.6,24.2,12.4,26.2,17.5,7.3,81,75,66,30.25,30.10,8,0,8,0.00
2013-12-11,28.6,18.4,10.9,17.2,11.7,6.4,82,76,59,30.42,30.24,11,1,11,0.02
2013-12-12,20.5,10.5,-1.1,7.4,2.6,-5.8,81,71,51,30.54,30.21,10,0,10,0.00
2013-12-13,19.9,11.6,-3.3,12.9,4.0,-9.9,81,71,62,30.66,30.16,10,1,10,0.00
2013-12-14,7.5,2.3,-4.7,2.1,-4.1,-10.8,80,74,65,30.82,30.34,4,0,4,0.00
2013-12-15,27.0,16.4,7.0,21.3,11.7,2.1,83,81,79,30.34,29.83,0,0,0,0.00
2013-12-16,17.8,9.9,-6.0,12.7,3.2,-11.4,83,74,61,30.46,29.97,8,0,8,0.00
2013-12-17,7.3,-3.0,-16.8,2.7,-8.2,-22.1,81,78,76,30.48,30.26,0,0,0,0.00
2013-12-18,31.8,17.9,5.7,22.9,12.7,1.1,82,80,69,30.29,30.19,5,0,5,0.04
2013-12-19,35.2,31.9,22.5,28.6,24.6,17.8,83,75,63,30.31,30.20,10,1,10,0.02